Location: Newark
(45.8667°N, 9.7333°E)
Time: 02:41:43
(UTC+00:00)

Envisat - Visible Passes

Search period start: 16 December 2019 00:00
Search period end: 26 December 2019 00:00
Orbit: 764 x 766 km, 98.1° (Epoch: 15 December)

Date Brightness Start Highest point End Pass type
(mag) Time Alt. Az. Time Alt. Az. Time Alt. Az.
16 Dec 3.7 05:58:16 10° NNE 06:03:19 59° E 06:08:19 10° S visible
16 Dec 3.0 17:15:05 10° SSE 17:20:10 85° WSW 17:25:17 10° NNW visible
16 Dec 6.2 18:58:38 10° WSW 18:59:58 11° W 19:01:18 10° WNW visible
17 Dec 5.2 05:21:59 10° NE 05:26:20 28° E 05:30:40 10° SSE visible
17 Dec 3.2 16:38:39 10° SE 16:43:29 47° ENE 16:48:21 10° N visible
17 Dec 5.3 18:18:40 10° SW 18:22:44 24° W 18:26:49 10° NW visible
18 Dec 6.1 04:46:44 10° ENE 04:49:09 13° E 04:51:34 10° ESE visible
18 Dec 3.9 17:40:48 10° S 17:45:42 50° W 17:50:40 10° NNW visible
19 Dec 4.2 05:47:04 10° NNE 05:51:59 47° E 05:56:52 10° S visible
19 Dec 2.9 17:03:50 10° SSE 17:08:54 79° ENE 17:14:00 10° N visible
19 Dec 6.0 18:45:54 10° WSW 18:48:31 14° W 18:51:10 10° WNW visible
20 Dec 5.5 05:10:58 10° NE 05:14:57 23° E 05:18:55 10° SE visible
20 Dec 3.5 16:27:37 10° SE 16:32:16 38° ENE 16:36:57 10° N visible
20 Dec 4.9 18:06:56 10° SSW 18:11:21 29° W 18:15:47 10° NW visible
21 Dec 6.4 04:36:59 10° ENE 04:37:43 10° E 04:38:26 10° E visible
21 Dec 3.2 06:12:25 10° NNE 06:17:33 81° ESE 06:22:37 10° S visible
21 Dec 3.5 17:29:23 10° S 17:34:24 63° W 17:39:27 10° NNW visible
22 Dec 4.6 05:35:55 10° NNE 05:40:39 38° E 05:45:21 10° SSE visible
22 Dec 3.0 16:52:38 10° SSE 16:57:38 63° ENE 17:02:40 10° N visible
22 Dec 5.7 18:33:44 10° SW 18:37:06 18° W 18:40:29 10° NW visible
23 Dec 5.9 05:00:04 10° NE 05:03:33 18° E 05:07:01 10° SE visible
23 Dec 3.7 16:16:39 10° SE 16:21:04 31° ENE 16:25:30 10° N visible
23 Dec 4.5 17:55:20 10° SSW 18:00:00 37° W 18:04:42 10° NNW visible
24 Dec 3.5 06:01:11 10° NNE 06:06:15 65° ESE 06:11:17 10° S visible
24 Dec 3.1 17:18:01 10° S 17:23:06 78° WSW 17:28:12 10° NNW visible
25 Dec 5.0 05:24:48 10° NNE 05:29:18 30° E 05:33:45 10° SSE visible
25 Dec 3.1 16:41:30 10° SE 16:46:23 51° ENE 16:51:19 10° N visible
25 Dec 5.4 18:21:48 10° SW 18:25:42 22° W 18:29:37 10° NW visible
